Regional Weather Roundup
Issued by NWS Kansas City/Pleasant Hill, MO

Home | Current Version | Previous Version | Graphics & Text | Print | Product List | Glossary Off
Versions: 1 2 3 4 5 6 7 8 9 10 11 12 13 14 15 16 17 18 19 20 21 22 23 24 25 26 27 28 29 30 31 32 33 34 35 36 37 38 39 40 41 42 43 44 45 46 47 48 49 50

713
ASUS43 KEAX 250910
RWREAX

WEATHER ROUNDUP FOR EASTERN KANSAS AND NORTHWEST MISSOURI
NATIONAL WEATHER SERVICE KANSAS CITY/PLEASANT HILL MO
400 AM CDT TUE JUL 25 2017

KSZ040-057-103>105-MOZ028-029-037-043-251000-
...KANSAS CITY METROPOLITAN AREA...

CITY           SKY/WX    TMP DP  RH WIND       PRES   REMARKS
K.C. INTL      PTCLDY    73  66  78 SE9       30.04S
K.C. DOWNTOWN  CLEAR     75  67  76 E7        30.03S
LEES SUMMIT    CLEAR     73  67  81 SE8       30.05S
OLATHE - IXD   CLEAR     72  67  84 E5        30.04S
OLATHE - OJC   CLEAR     71  67  87 SE7       30.04F
LAWRENCE       CLEAR     71  69  93 E7        30.03S

$$

MOZ001>008-011>017-020>025-030>033-038>040-044>046-053-054-251000-
...NORTHERN AND CENTRAL MISSOURI...

CITY           SKY/WX    TMP DP  RH WIND       PRES   REMARKS
ST. JOSEPH     CLEAR     74  68  81 S8        30.04S
MOSBY          SUNNY     70  68  94 CALM      30.05R
WARRENSBURG    CLEAR     68  64  88 CALM      30.05R
WHITEMAN AFB   CLEAR     69  69 100 SE3       30.04S
CLINTON        PTCLDY    68  66  94 CALM      30.05S
SEDALIA        CLEAR     69  68  96 E3        30.06F
WARSAW         NOT AVBL
CHILLICOTHE      N/A     69  68  96 VRB3      30.08R
KIRKSVILLE     CLEAR     65  64  97 E5        30.10S FOG

$$

MOZ041-047>049-056>058-063>065-088>090-097-251000-
...EASTERN AND SOUTHERN MISSOURI...

CITY           SKY/WX    TMP DP  RH WIND       PRES   REMARKS
ST. LOUIS INTL PTCLDY    74  66  76 E9        30.06S
SPIRIT OF STL  CLEAR     72  69  90 E5        30.04S
COLUMBIA       CLEAR     69  68  96 E6        30.06S
JEFFERSON CITY CLEAR     69  69 100 CALM      30.04S
ROLLA          CLEAR     71  68  90 E8        30.04S
OSAGE BEACH    CLEAR     69  66  90 CALM      30.05S
SPRINGFIELD    CLEAR     73  69  87 CALM      30.04S
BRANSON          N/A     75  68  78 CALM      30.07R
JOPLIN         CLEAR     74  73  97 CALM      30.03F
WEST PLAINS    CLEAR     72  70  93 CALM      30.05S

$$

IAZ060-094-KSZ022-034>040-054-083-096-NEZ052-066-093-251000-
...KANSAS...SOUTHEAST NEBRASKA AND IOWA...

CITY           SKY/WX    TMP DP  RH WIND       PRES   REMARKS
TOPEKA         CLEAR     74  70  87 SE3       30.02S
MANHATTAN      CLEAR     77  74  90 S7        30.00R
EMPORIA        CLEAR     74  72  93 SE7       30.02S
CHANUTE        CLEAR     75  73  93 SE6       30.03S
WICHITA        CLEAR     73  69  87 S6        30.02S
OMAHA          PTCLDY    75  65  70 SE14      29.99R
LINCOLN        PTCLDY    72  67  84 S9        29.97F
FALLS CITY     PTCLDY    70  67  90 SE7       30.02R
LAMONI         CLEAR     67  66  97 SE6       30.08R
DES MOINES     CLOUDY    68  65  90 SE12      30.05F

$$





USA.gov is the U.S. government's official web portal to all federal, state and local government web resources and services.